{"data":{"norad_id":54166,"intl_designator":"2022-141K","name":"STARLINK-5280","alt_names":[],"object_type":"PAYLOAD","status":"ACTIVE","operator":null,"country":"US","launch_date":"2022-10-28","launch_site_code":"AFWTR","launch_vehicle":null,"mission":null,"orbit_class":"UNKNOWN","rcs_meters":null,"size_class":null,"mass_kg":null,"dimensions":null,"purposes":["comms"],"wikipedia_slug":null,"has_3d_model":false,"image_url":null,"decayed_at":null,"tle_current":{"epoch":"2026-09-20T10:55:16.462560Z","epoch_age_seconds":93058,"freshness":"FRESH","line1":"1 54166U 22141K   26263.45505165  .00000298  00000+0  19966-4 0  9995","line2":"2 54166  53.1602 194.1723 0001130  96.9249 263.1883 15.34388397215473","mean_motion":15.34388397,"eccentricity":0.000113,"inclination_deg":53.1602,"raan_deg":194.1723,"arg_perigee_deg":96.9249,"mean_anomaly_deg":263.1883,"bstar":1.9966e-5,"rev_number":21547,"period_min":93.848467755325,"perigee_km":461.9647081415,"apogee_km":463.5107458298,"semimajor_km":6840.8747269856,"source":"CELESTRAK","updated_at":"2026-09-21T09:00:33.089308Z"}}}